Find OneWeb SL0150

NORAD ID: 48047 Int'l Des: 2021-025 Owner: ONEWEBN Country: UK Constellation: oneweb operational
LEOCIRCULARPOLARONEWEB_TYPE

Live Position

Loading 3D Globe...

About OneWeb SL0150

Description loading...

Upcoming Passes

Passes for default location (London). Set your location on the main map for personalized predictions.

Altitude History

Loading altitude history...

Two-Line Element Set

1 48047U 21025F 26125.06258370 -.00000190 00000-0 -55416-3 0 9996
2 48047 87.8960 328.8039 0001722 94.3771 265.7555 13.13471278247880
Epoch: May 5, 2026 • Age: 16 hours

Current Status

Altitude 1215.4 km
Velocity 7.25 km/s
Sub-Earth Point -12.27°S, 163.82°W
Launch Date Mar 25, 2021
Age 5.1 years
Type internet

Technical Details

Classification Payload
Mass 148.00 kg
Dry Mass 140.00 kg
Total Mass 148.00 kg
Length 1.30 m
Diameter 1.00 m
Span 5.00 m
Shape Trapezoid+2 pan
Manufacturer ONEWUS
Bus Type ARROW
Phase Status In Orbit
Owner/State ONEWEBN/UK

Most Searched